Location: Borbetomagus
(49.6328°N, 8.3592°E)
Time: 10:48:35
(UTC+00:00)

GP-B - Pass Details

Date: 19 May 2025
Orbit: 619 x 624 km, 89.8° (Epoch: 23 June)

Event Time Altitude Azimuth Distance (km) Brightness Sun altitude
Rises 23:09:11 0° 3° (N) 2,918 8.1 -20.3°
Reaches altitude 10° 23:11:26 10° 5° (N) 2,006 6.9 -20.3°
Maximum altitude 23:15:50 72° 90° (E) 660 3.1 -20.4°
Enters shadow 23:16:49 51° 156° (SSE) 785 3.2 -20.4°
